Regional Weather Roundup
Issued by NWS Charleston, SC

Current Version | Previous Version | Text Only | Print | Product List | Glossary Off
Versions: 1 2 3 4 5 6 7 8 9 10 11 12 13 14 15 16 17 18 19 20 21 22 23 24 25 26 27 28 29 30 31 32 33 34 35 36 37 38 39 40 41 42 43 44 45 46 47 48 49 50

000
ASUS42 KCHS 032327
RWRCHS

REGIONAL WEATHER ROUNDUP
NATIONAL WEATHER SERVICE CHARLESTON SC
700 PM EDT MON AUG 03 2015

NOTE: "FAIR" INDICATES FEW OR NO CLOUDS BELOW 12,000 FEET WITH NO
SIGNIFICANT WEATHER AND/OR OBSTRUCTIONS TO VISIBILITY.

NOT ALL STATIONS ARE QUALITY CONTROLLED BY THE NATIONAL
WEATHER SERVICE. USE DATA WITH CAUTION...ESPECIALLY
DEWPOINT OBSERVATIONS.

SCZ027-030-031-034>040-042>050-040000-
...SOUTHEAST SOUTH CAROLINA...

CITY           SKY/WX    TMP DP  RH WIND       PRES   REMARKS
N CHARLESTON   CLOUDY    83  74  74 SE6       29.90F
WATERFRONT PRK   N/A     84  74  72 E5        29.89S HX  91
MOUNT PLEASANT LGT RAIN  79  79 100 E3        29.90F
JOHNS ISLAND   FAIR      82  77  83 S5        29.90F HX  91
PINOPOLIS      NOT AVBL
MONCKS CORNER  FAIR      84  72  65 CALM      29.91F
SUMMERVILLE    FAIR      84  73  70 SE5       29.91F HX  91
BEAUFORT MCAS  CLOUDY    83  74  74 SE7       29.88F
BEAUFORT ARPT  NOT AVBL
HILTON HEAD IS RAIN      81  75  83 SE5       29.89F
WALTERBORO     CLOUDY    81  77  89 CALM      29.91F
ALLENDALE      NOT AVBL

...SOUTHERN MIDLANDS AND PEE DEE...

CITY           SKY/WX    TMP DP  RH WIND       PRES   REMARKS
GEORGETOWN     NOT AVBL
KINGSTREE      NOT AVBL
ORANGEBURG     PTSUNNY   80  72  76 SE6       29.92F
BARNWELL       FAIR      82  75  78 SE5       29.91F
AIKEN          NOT AVBL
MANNING        NOT AVBL
COLUMBIA       MOSUNNY   89  70  53 SE13      29.89S HX  94
SUMTER         SUNNY     84  71  64 S14       29.89F
FLORENCE       PTSUNNY   83  70  64 SW10      29.92R
MYRTLE BEACH   MOSUNNY   84  73  70 S9        29.95F HX  91
N MYRTLE BEACH CLOUDY    82  77  84 S3        29.93F HX  90

$$

GAZ063-065-086>088-099>101-113>116-118-119-134>141-150-040000-
...SOUTHEAST GEORGIA...

CITY           SKY/WX    TMP DP  RH WIND       PRES   REMARKS
SAVANNAH ARPT  PTSUNNY   83  73  72 E12       29.87F
HUNTER AAF     CLOUDY    79  77  94 E7        29.85S
FORT STEWART   PTSUNNY   82  73  74 E5        29.84S
STATESBORO     CLOUDY    80  80 100 E3        29.88S
SYLVANIA       CLOUDY    80  79  95 E6        29.89S
CLAXTON        NOT AVBL

...CSRA...CENTRAL AND FAR SOUTHEAST GEORGIA...

CITY           SKY/WX    TMP DP  RH WIND       PRES   REMARKS
THOMSON        SUNNY     90  76  64 E7        29.93R HX 101
AUGUSTA-BUSH   SUNNY     86  74  67 SE8       29.88S HX  94
AUGUSTA-DANIEL MOSUNNY   86  74  67 SE9       29.89F HX  94
SWAINSBORO     FAIR      86  73  66 E6        29.90R HX  93
VIDALIA        SUNNY     82  73  74 NE5       29.88R
EASTMAN        CLOUDY    92  73  53 E14       29.90R HX 101
HAZLEHURST     FAIR      83  81  94 CALM      29.87R HX  97
ALMA           LGT RAIN  79  76  90 NW7       29.87R FOG
WAYCROSS       RAIN      83  81  93 E5        29.86R HX  97
JESUP          MOCLDY    86  79  79 SE5       29.86F HX  99
BAXLEY         FAIR      86  77  74 NE5       29.87S HX  97
BRUNSWICK      MOSUNNY   82  77  83 W3        29.85F HX  91
SAINT SIMONS   PTSUNNY   82  76  81 VRB5      29.84F

$$

SCZ027-028-034-036>038-045-046-048>050-GAZ119-141-040000-
...LAKE AND SUPPLEMENTAL COASTAL OBSERVATIONS...

STATION/POSITION TIME  TEMP    WIND        PRES    WAVE   SWELL
                       AIR SEA DIR/SP/G            HT/PER HT/PER/DIR
                 (UTC) (F)     (DEG/KT/KT) (MB)    (FT/S) (FT/S/D)
UPR LAKE MARION  NOT AVBL
WINYAH BAY       2200   84     210/  6     1013.0
LAKE MURRAY      2200   89     100/  7/ 13 1011.5S
ACE BASIN NERRS  NOT AVBL
FORT PULASKI     2300   80 85  120/  5/  7 1012.1S
SAPELO ISLAND    2200   84     100/  4     1011.0S

$$

ANZ835-935-AMZ111-154-330-350-352-354-370-450-454-472-040000-
...C-MAN AND BUOY OBSERVATIONS...

STATION/POSITION TIME  TEMP    WIND        PRES    WAVE   SWELL
                       AIR SEA DIR/SP/G            HT/PER HT/PER/DIR
                 (UTC) (F)     (DEG/KT/KT) (MB)    (FT/S) (FT/S/D)
BUOY 41004       2250   82 83  150/ 10/ 12 1012.8S   5/ 6   3/ 6
BUOY 41008       2250   80 83  180/ 12/ 16 1011.0F   5/ 7   3/140/ 7
FOLLY BEACH CMAN 2300   83     170/ 12/ 14 1013.0F
CAPERS NEARSHORE 2208   84     190/  4/  8 1013.5F
FRIPP NEARSHORE  2200   84     170/ 10/ 14 1012.1F


STATION/POSITION TIME  TEMP    WIND        PRES    WAVE   SWELL
                       AIR SEA DIR/SP/G            HT/PER HT/PER/DIR
                 (UTC) (F)     (DEG/KT/KT) (MB)    (FT/S) (FT/S/D)
5E ST. MARYS GA  2221      82                N/A     4/ 6   2/110/11
FRYING PAN BUOY  2250   83 82  180/ 12/ 14 1014.6F   5/ 6   3/180/ 6
BUOY 41025       2250   78 84  190/ 17/ 21 1014.4F   4/ 6   2/160/11
CAPE LOOKOUT NC  2300   78     180/ 15/ 16 1013.9F
BUOY 41002       2250   83 81  190/ 14/ 16 1016.7R   5/ 7   3/120/11
BUOY 41010       2220   84 84  180/ 16/ 19 1014.7F
ST AUGUSTINE FL  2300   76 79  200/ 12/ 13 1012.8R


$$


USA.gov is the U.S. government's official web portal to all federal, state and local government web resources and services.